Regional Weather Roundup
Issued by NWS Charleston, WV

Current Version | Previous Version | Text Only | Print | Product List | Glossary On
Versions: 1 2 3 4 5 6 7 8 9 10 11 12 13 14 15 16 17 18 19 20 21 22 23 24 25 26 27 28 29 30 31 32 33 34 35 36 37 38 39 40 41 42 43 44 45 46 47 48 49 50
000
ASUS41 KRLX 040010
RWRRLX
West Virginia Regional Weather Roundup
National Weather Service Charleston WV
700 PM EST TUE MAR 03 2015

Note: "fair" indicates few or no clouds below 12,000 feet with no
significant weather and/or obstructions to visibility.

WVZ003-040100-
Northern Panhandle of West Virginia

CITY           SKY/WX    TMP DP  RH WIND       PRES   REMARKS
WHEELING       LGT RAIN  47  45  93 SW15      29.72S FOG
$$

WVZ009-040100-
Northwest West Virginia

CITY           SKY/WX    TMP DP  RH WIND       PRES   REMARKS
PARKERSBURG    LGT RAIN  51  48  89 S7        29.78F
$$

WVZ006-040100-
Western West Virginia

CITY           SKY/WX    TMP DP  RH WIND       PRES   REMARKS
HUNTINGTON     CLOUDY    61  54  77 SW9G17    29.81R
$$

WVZ015-040100-
West Central West Virginia

CITY           SKY/WX    TMP DP  RH WIND       PRES   REMARKS
CHARLESTON     CLOUDY    61  52  72 SW13      29.82F
$$

WVZ022-031-040100-
North Central West Virginia

CITY           SKY/WX    TMP DP  RH WIND       PRES   REMARKS
CLARKSBURG     LGT RAIN  54  49  83 S15       29.77F
MORGANTOWN     LGT RAIN  54  49  83 SW8G20    29.76S
$$

WVZ025-035-042-045-040100-
Southern West Virginia

CITY           SKY/WX    TMP DP  RH WIND       PRES   REMARKS
BECKLEY        CLOUDY    50  47  89 S16       29.94S
LOGAN          CLOUDY    57  52  82 S7G14     29.86F
BLUEFIELD      CLOUDY    54  47  77 W10       29.98S
LEWISBURG      CLOUDY    35  34  93 NE3       29.99F
$$

WVZ047-040100-
Northern Mountains of West Virginia

CITY           SKY/WX    TMP DP  RH WIND       PRES   REMARKS
ELKINS         CLOUDY    47  44  90 SE8       29.84F
$$

WVZ052-040100-
Eastern Panhandle of West Virginia

CITY           SKY/WX    TMP DP  RH WIND       PRES   REMARKS
MARTINSBURG    MOCLDY    35  20  54 S9        29.94F
PETERSBURG     MOCLDY    42  32  67 S16G22    29.88F
$$


USA.gov is the U.S. government's official web portal to all federal, state and local government web resources and services.